CAPE
711 959 1698 1522 1478 1703 1570 985 1020 1208 660 244 133 97 83 64 289 302 223 466 536 131 35 1 1 209 419 475 439 420 599 618 497 141 100 13 0 0 1 0 0 1 2
199 522 1584 1707 1798 1594 1598 1418 1310 1120 1196 477 219 129 48 221 325 370 448 540 655 493 562 60 8 91 168 496 337 625 483 264 58 15 17 0 3 2 2 0 0 2 3
372 1037 1357 1580 1597 1603 1648 1594 1684 1453 1414 767 342 237 438 620 829 800 683 501 856 806 68 318 337 43 238 583 506 407 223 39 0 0 0 0 2 3 3 4 5 7 7
473 1223 1413 1619 1524 1453 1639 1559 1510 1331 1238 1195 718 321 190 412 457 495 514 1018 906 622 461 125 242 282 293 420 356 309 104 2 0 0 0 0 0 3 3 6 6 6 9
1056 1422 1426 1477 1483 1612 1434 1648 1346 1342 1431 1473 1295 723 386 239 236 347 396 931 939 969 540 319 140 125 266 412 511 314 29 15 0 0 0 0 0 0 2 2 3 2 1
422 1413 1181 1231 1329 1389 1420 1389 1296 1276 1260 1388 1397 1149 814 530 349 334 328 697 1143 932 416 242 107 113 278 394 292 47 0 0 0 0 0 0 0 0 0 0 1 5 6
0 131 1030 1073 1102 1248 1258 1232 1437 1410 1372 1508 1322 1212 1017 822 624 529 784 588 989 703 432 235 105 95 177 244 245 27 0 0 0 0 0 0 0 1 1 0 0 2 2
0 0 0 97 844 728 870 1085 1167 1363 1255 1275 1396 1284 1250 1218 1115 1149 1232 938 689 801 560 353 171 28 62 90 114 10 0 0 0 0 0 0 0 7 3 1 0 0 0
0 0 0 0 0 208 468 578 885 945 944 988 1045 1153 1165 1197 1300 1362 1171 1162 846 750 781 635 295 29 8 0 12 12 0 0 0 0 0 0 0 35 7 2 0 1 0
0 0 0 0 0 0 0 55 226 333 337 638 663 588 780 845 759 867 972 981 1070 976 1038 911 680 378 55 77 38 4 0 0 0 0 0 0 0 0 6 0 0 1 2
0 0 0 0 0 0 0 0 0 0 28 191 390 433 557 886 909 659 472 423 652 1062 1046 970 793 787 368 52 46 49 0 0 0 0 0 0 0 0 32 13 0 1 2
0 0 0 0 0 0 0 0 0 0 0 0 124 509 705 758 794 479 238 75 118 460 717 973 834 596 298 45 8 3 9 0 0 0 0 0 0 0 1 229 59 0 1
0 0 0 0 0 0 0 0 0 0 0 0 0 2 49 446 651 613 575 401 366 65 455 596 800 774 606 133 17 0 8 1 0 0 0 0 0 0 51 171 674 155 16
0 0 0 0 0 0 0 0 0 0 0 0 0 0 0 14 57 353 519 510 367 312 310 456 544 681 778 326 61 0 0 0 0 0 0 0 0 0 13 74 396 665 403
0 0 0 0 0 0 0 0 0 0 0 0 0 0 0 0 0 16 32 111 308 343 302 326 166 166 308 559 207 47 2 0 0 0 0 0 0 0 0 22 144 476 605
0 0 0 0 0 0 0 0 0 0 0 0 0 0 0 0 0 0 3 98 65 225 284 304 289 154 198 199 184 228 94 12 0 0 0 0 0 0 0 0 116 362 563
0 0 0 0 0 0 0 0 0 0 0 0 0 0 0 0 0 0 1 10 97 191 276 283 277 279 248 193 106 118 259 141 37 0 0 0 0 0 0 0 67 282 855
0 0 0 0 0 0 0 0 0 0 0 0 0 0 0 0 0 0 0 0 0 93 210 234 176 157 172 169 142 70 84 144 50 20 0 0 0 0 0 0 31 238 736
0 0 0 0 0 0 0 0 0 0 0 0 0 0 0 0 0 0 0 0 0 20 178 276 253 243 217 141 137 81 43 20 1 3 3 0 0 0 0 0 0 2 69
0 0 0 0 0 0 0 0 0 0 0 0 0 0 0 0 0 0 0 0 0 22 67 130 307 263 197 124 85 58 30 1 1 2 0 0 0 0 0 0 0 0 0
0 0 0 0 0 0 0 0 0 0 1 1 0 0 0 0 0 0 0 0 0 2 1 6 241 202 151 156 195 73 61 15 3 6 0 0 0 0 0 0 0 0 0
0 0 0 0 0 0 3 2 16 7 0 1 0 0 0 0 0 0 0 0 0 0 0 1 13 260 234 274 263 193 114 254 124 140 118 61 14 6 0 0 0 0 0
0 0 0 0 0 0 0 0 3 3 0 0 0 0 0 0 0 0 0 0 0 44 71 111 218 195 98 255 417 301 163 214 77 80 168 129 94 11 28 10 0 0 0
0 0 0 0 0 0 0 1 2 6 6 0 2 3 0 0 0 0 0 14 48 93 170 254 291 452 557 390 405 596 420 3 9 142 0 6 74 180 87 30 8 0 0
0 0 0 0 0 0 0 0 4 4 2 1 2 1 0 0 0 0 0 0 39 134 234 283 240 201 120 606 662 534 570 376 66 1 227 148 0 0 0 0 0 6 1
0 0 0 0 0 0 0 0 1 3 5 4 1 1 1 3 0 0 0 0 10 105 153 280 376 306 447 244 575 546 476 388 191 76 96 233 163 14 0 1 15 36 33
CIN
-48 -23 -6 -6 -5 -1 -0 -3 -5 -2 -19 -120 -178 -215 -228 -232 -75 -54 -72 -16 -21 -135 -244 -0 -0 -126 -85 -80 -75 -70 -37 -20 -42 -157 -174 -188 -0 -0 -0 -0 -0 -0 -0
-183 -92 -9 -5 -2 -3 -3 -0 -0 -1 -0 -40 -129 -174 -237 -114 -49 -30 -8 -1 -2 -25 -19 -73 -253 -180 -141 -70 -106 -50 -60 -105 -233 -334 -309 -0 -1 -0 -0 -0 -0 -0 -0
-133 -37 -4 -8 -7 -6 -2 -1 -0 -0 -0 -2 -77 -109 -31 -2 -0 -0 -0 -6 -3 -1 -185 -63 -67 -231 -117 -47 -71 -89 -126 -226 -0 -0 -0 -0 -0 -0 -0 -0 -0 -0 -0
-115 -33 -11 -13 -11 -8 -2 -2 -1 -0 -0 -0 -4 -94 -154 -41 -13 -4 -6 -0 -1 -2 -15 -130 -78 -67 -76 -66 -89 -100 -171 -24 -0 -0 -0 -0 -0 -0 -0 -0 -0 -0 -0
-44 -25 -28 -19 -12 -5 -6 -2 -7 -3 -0 -0 -0 -4 -70 -132 -120 -44 -22 -1 -1 -1 -8 -41 -111 -116 -54 -36 -34 -90 -50 -45 -0 -0 -0 -0 -0 -0 -0 -0 -0 -0 -0
-120 -16 -16 -22 -12 -8 -5 -6 -7 -5 -2 -1 -0 -0 -1 -12 -56 -54 -48 -3 -1 -1 -16 -49 -104 -101 -37 -23 -42 -130 -0 -0 -0 -0 -0 -0 -0 -0 -0 -0 -0 -0 -0
-0 -90 -22 -17 -11 -8 -8 -6 -3 -3 -4 -0 -0 -0 -0 -0 -0 -1 -0 -3 -0 -1 -17 -65 -125 -104 -49 -26 -22 -113 -0 -0 -0 -0 -0 -0 -0 -0 -0 -0 -0 -0 -0
-0 -0 -0 -132 -31 -20 -8 -9 -7 -2 -3 -3 -2 -0 -0 -0 -0 -0 -0 -1 -1 -0 -2 -23 -94 -184 -132 -96 -54 -143 -0 -0 -0 -0 -0 -0 -0 -0 -0 -0 -0 -0 -0
-0 -0 -0 -0 -0 -163 -50 -31 -12 -8 -7 -6 -4 -3 -2 -2 -1 -1 -1 -0 -0 -0 -0 -1 -40 -185 -189 -0 -81 -134 -0 -0 -0 -0 -0 -0 -0 -85 -0 -0 -0 -0 -0
-0 -0 -0 -0 -0 -0 -0 -167 -48 -40 -41 -21 -18 -10 -8 -6 -6 -7 -3 -3 -0 -1 -0 -0 -0 -10 -125 -86 -126 -70 -0 -0 -0 -0 -0 -0 -0 -0 -0 -0 -0 -0 -0
-0 -0 -0 -0 -0 -0 -0 -0 -0 -0 -67 -43 -22 -22 -14 -0 -0 -4 -9 -16 -6 -1 -0 -1 -1 -0 -16 -146 -105 -102 -0 -0 -0 -0 -0 -0 -0 -0 -11 -0 -0 -0 -0
-0 -0 -0 -0 -0 -0 -0 -0 -0 -0 -0 -7 -41 -4 -3 -1 -0 -12 -27 -86 -76 -8 -3 -1 -1 -4 -15 -72 -71 -37 -33 -0 -0 -0 -0 -0 -0 -0 -0 -1 -11 -0 -0
-0 -0 -0 -0 -0 -0 -0 -0 -0 -0 -0 -0 -0 -44 -97 -2 -2 -2 -2 -7 -3 -54 -0 -0 -0 -0 -0 -50 -64 -0 -84 -26 -0 -0 -0 -0 -0 -0 -5 -4 -0 -2 -0
-0 -0 -0 -0 -0 -0 -0 -0 -0 -0 -0 -0 -0 -0 -0 -32 -32 -4 -0 -1 -6 -2 -1 -0 -0 -0 -0 -0 -28 -8 -0 -0 -0 -0 -0 -0 -0 -0 -36 -35 -0 -0 -0
-0 -0 -0 -0 -0 -0 -0 -0 -0 -0 -0 -0 -0 -0 -0 -0 -0 -38 -38 -20 -6 -3 -1 -0 -1 -15 -8 -0 -7 -46 -17 -0 -0 -0 -0 -0 -0 -0 -0 -66 -15 -0 -0
-0 -0 -0 -0 -0 -0 -0 -0 -0 -0 -0 -0 -0 -0 -0 -0 -0 -0 -9 -34 -59 -12 -9 -5 -2 -1 -1 -11 -16 -7 -32 -54 -0 -0 -0 -0 -0 -0 -0 -0 -28 -5 -0
-0 -0 -0 -0 -0 -0 -0 -0 -0 -0 -0 -0 -0 -0 -0 -0 -0 -0 -0 -5 -31 -24 -10 -0 -0 -0 -0 -2 -25 -26 -7 -25 -79 -0 -0 -0 -0 -0 -0 -0 -45 -14 -0
-0 -0 -0 -0 -0 -0 -0 -0 -0 -0 -0 -0 -0 -0 -0 -0 -0 -0 -0 -0 -0 -13 -1 -0 -8 -9 -5 -7 -21 -64 -60 -43 -80 -95 -24 -0 -0 -0 -0 -0 -79 -32 -8
-0 -0 -0 -0 -0 -0 -0 -0 -0 -0 -0 -0 -0 -0 -0 -0 -0 -0 -0 -0 -0 -0 -1 -0 -1 -0 -4 -26 -36 -49 -64 -92 -0 -45 -107 -15 -0 -0 -0 -0 -0 -102 -86
-0 -0 -0 -0 -0 -0 -0 -0 -0 -0 -0 -0 -0 -0 -0 -0 -0 -0 -0 -0 -0 -0 -0 -9 -0 -0 -2 -24 -36 -58 -95 -43 -0 -0 -0 -0 -0 -0 -0 -0 -0 -0 -0
-0 -0 -0 -0 -0 -0 -0 -0 -0 -0 -0 -0 -0 -0 -0 -0 -0 -0 -0 -0 -0 -0 -0 -0 -0 -0 -0 -2 -5 -18 -90 -177 -213 -203 -0 -0 -0 -0 -0 -0 -0 -0 -0
-0 -0 -0 -0 -0 -0 -0 -0 -0 -0 -0 -0 -0 -0 -0 -0 -0 -0 -0 -0 -0 -0 -0 -0 -0 -0 -0 -0 -0 -2 -5 -2 -76 -119 -139 -199 -272 -181 -0 -0 -0 -0 -0
-0 -0 -0 -0 -0 -0 -0 -0 -0 -0 -0 -0 -0 -0 -0 -0 -0 -0 -0 -0 -0 -13 -0 -0 -0 -0 -8 -4 -0 -0 -0 -0 -45 -153 -119 -139 -166 -127 -168 -201 -0 -0 -0
-0 -0 -0 -0 -0 -0 -0 -1 -0 -0 -0 -0 -0 -0 -0 -0 -0 -0 -0 -13 -9 -5 -1 -0 -1 -0 -0 -0 -0 -0 -2 -5 -27 -7 -0 -29 -134 -96 -105 -113 -143 -0 -0
-0 -0 -0 -0 -0 -0 -0 -0 -0 -0 -0 -0 -0 -0 -0 -0 -0 -0 -0 -0 -36 -36 -16 -4 -9 -8 -16 -0 -1 -0 -0 -0 -13 -0 -0 -53 -12 -0 -0 -0 -17 -70 -6
-0 -0 -0 -0 -0 -0 -0 -0 -0 -0 -0 -0 -0 -0 -0 -0 -0 -0 -0 -0 -25 -66 -38 -13 -18 -15 -2 -10 -0 -12 -24 -15 -28 -45 -24 -7 -13 -90 -0 -50 -75 -58 -77
Wind_Speed
4 2 8 8 10 11 11 10 9 10 9 10 10 10 9 9 8 7 6 4 5 8 9 7 6 7 9 10 11 10 8 8 12 13 10 11 11 11 10 9 8 8 10
8 5 9 9 9 9 10 9 8 7 9 8 9 9 9 8 7 6 4 2 2 8 10 8 8 6 7 9 10 12 11 11 11 11 9 9 7 9 9 9 7 9 10
7 2 9 9 8 8 9 10 7 6 7 7 7 7 7 6 5 5 3 4 2 9 8 7 7 6 7 9 10 10 9 10 10 10 8 6 7 8 8 8 8 8 9
9 3 6 9 8 8 8 8 8 7 7 8 7 6 6 5 4 2 2 3 6 8 8 8 6 6 6 7 9 9 8 8 9 8 5 6 6 7 7 7 8 8 8
4 5 5 8 7 6 6 7 7 8 7 7 6 7 5 5 4 3 1 3 7 7 8 7 6 6 6 6 8 5 4 6 6 4 4 4 4 6 6 6 7 7 6
10 4 7 6 6 5 5 6 6 6 7 6 5 6 5 5 4 4 3 3 7 7 7 7 7 7 6 6 7 4 2 5 6 4 3 4 2 4 5 6 6 6 6
11 10 8 5 3 4 3 3 5 6 6 6 6 7 7 6 6 6 5 5 6 7 8 7 8 8 7 6 7 6 4 5 6 3 2 2 3 4 4 5 5 5 5
8 9 9 10 9 4 2 4 4 4 6 6 6 7 7 7 7 8 7 7 8 9 9 9 9 9 9 9 9 7 5 7 6 5 4 3 4 5 4 4 4 4 4
8 8 7 7 8 9 7 6 4 5 6 6 7 7 7 7 7 8 8 9 10 11 11 10 10 10 11 10 9 8 7 7 6 4 5 4 6 7 5 4 5 5 4
6 7 8 8 7 6 6 8 6 5 6 6 6 7 7 6 7 8 7 9 11 12 12 11 11 11 10 9 9 8 8 8 7 6 5 4 8 9 8 7 7 6 6
6 8 8 8 8 8 7 5 7 6 5 5 5 7 7 7 8 8 7 7 9 11 12 13 13 12 10 10 9 9 8 5 7 5 4 8 10 10 10 9 9 9 9
7 9 8 8 8 8 6 7 7 6 5 6 6 8 7 8 8 7 7 7 9 10 11 13 14 12 9 8 6 9 7 7 6 6 5 10 12 12 12 11 11 11 11
4 5 9 8 7 7 6 5 3 3 4 4 6 5 6 6 6 6 5 5 7 7 7 9 10 10 11 9 8 7 9 8 6 6 8 11 12 14 14 14 12 13 13
5 7 8 8 7 7 5 4 4 4 4 4 5 7 5 3 5 6 6 7 7 6 9 9 7 10 12 13 12 11 10 8 6 5 7 11 13 14 14 15 16 14 15
5 6 7 7 7 7 7 5 5 5 4 6 6 7 5 6 6 6 5 6 7 7 8 9 9 9 11 13 12 12 13 12 11 7 6 12 14 16 17 16 18 17 16
5 7 7 8 6 7 7 8 7 6 7 5 6 7 8 7 7 8 7 6 7 8 8 9 10 9 9 9 13 14 15 13 13 12 8 8 14 15 17 18 18 19 18
5 7 8 9 9 9 9 8 7 7 8 8 7 9 10 9 9 10 8 7 6 6 10 8 8 9 9 8 10 12 13 15 13 14 11 9 9 14 15 18 17 18 18
6 8 9 8 10 10 9 8 7 7 7 8 8 8 11 10 10 9 8 9 8 7 6 7 7 8 8 9 8 8 9 10 11 14 11 10 10 9 11 17 16 17 17
5 8 9 8 9 9 9 8 8 9 7 8 8 8 11 11 11 9 8 8 10 8 8 7 6 7 8 9 9 8 7 7 9 7 13 13 11 10 8 9 12 13 14
5 6 7 7 8 9 7 6 6 6 6 6 8 9 12 9 11 9 8 10 9 8 8 9 9 7 7 8 7 7 7 7 7 8 9 8 10 10 10 10 5 3 12
4 8 8 9 9 7 6 7 5 7 8 8 8 12 12 11 11 10 8 9 9 9 10 11 10 10 7 7 5 5 8 8 11 10 9 9 10 11 10 8 5 6 8
7 8 10 9 10 7 6 7 4 6 7 9 9 10 11 11 11 10 9 8 10 8 10 11 11 6 5 6 3 3 4 5 8 10 9 10 13 8 10 8 7 7 7
7 8 9 10 11 9 10 8 7 6 5 6 7 8 8 9 9 9 9 9 9 8 8 9 9 11 7 5 10 5 2 4 1 3 9 9 11 8 8 8 8 7 8
6 6 8 9 8 8 9 8 10 6 7 7 8 9 10 10 9 8 8 7 8 7 8 8 8 10 10 9 4 8 7 3 3 5 3 4 7 8 8 6 5 8 8
4 4 5 7 8 7 7 8 7 7 6 7 6 11 10 9 8 8 6 6 7 7 7 8 8 7 8 9 8 5 8 6 8 4 8 3 2 4 4 5 6 5 6
4 3 4 7 8 8 7 8 9 9 8 7 7 8 7 7 7 7 6 5 6 6 7 6 7 9 8 7 8 7 8 5 6 6 7 8 3 3 3 3 2 4 4
Wind_Direction
50 355 165 159 156 145 141 136 127 122 117 115 117 120 124 125 124 122 132 142 143 127 118 112 106 96 90 101 106 99 96 116 116 104 99 101 102 98 93 85 78 81 73
299 264 199 166 158 156 144 143 142 127 129 122 123 124 130 132 129 128 132 164 174 136 125 118 119 111 95 109 112 110 101 100 96 95 94 96 97 103 101 98 94 91 89
315 194 170 166 160 156 154 156 153 147 141 136 130 133 138 139 134 139 168 207 186 145 116 105 86 113 105 113 118 113 113 114 111 107 98 102 104 103 102 102 100 96 94
304 225 158 159 161 162 163 166 170 167 164 159 148 149 154 159 159 148 41 202 166 139 116 123 113 115 126 131 131 119 121 122 121 121 125 121 119 119 118 116 109 103 99
296 203 163 158 153 156 168 174 187 185 184 176 171 167 171 173 186 193 86 72 153 118 126 137 143 147 154 161 144 129 145 145 129 136 121 132 133 124 129 118 115 110 109
10 33 132 148 149 150 176 190 203 195 192 184 184 190 185 197 204 206 185 113 141 141 152 158 165 169 175 176 149 146 139 176 151 153 155 151 162 137 134 134 133 120 114
27 28 54 57 119 162 179 192 208 210 203 201 200 202 202 207 214 218 190 184 176 174 176 178 181 183 187 196 178 168 144 150 181 175 195 201 207 199 166 157 153 145 138
32 27 30 22 18 5 263 212 225 233 235 230 220 225 220 223 224 223 210 201 204 205 200 199 196 196 198 199 203 192 165 164 177 185 196 227 250 250 200 186 180 174 165
28 26 21 18 19 19 19 360 313 255 253 257 248 241 239 250 244 248 226 217 218 217 216 215 213 208 208 211 214 196 191 180 206 214 209 202 215 246 219 212 214 212 205
18 20 12 7 2 12 357 19 358 332 324 295 268 253 242 244 251 254 260 241 233 229 226 220 220 218 216 218 217 207 208 195 213 211 221 229 225 227 219 212 223 228 229
358 3 359 358 355 352 348 356 353 349 338 305 277 262 260 250 245 247 248 249 248 242 236 231 227 224 218 219 224 220 213 224 219 220 220 216 230 236 244 220 222 228 229
338 344 360 356 354 351 344 349 343 344 338 325 313 293 279 255 248 243 246 242 251 255 255 241 234 228 223 234 226 222 227 224 226 229 226 223 230 235 239 244 223 232 238
324 342 349 347 347 352 345 343 340 336 331 324 325 314 307 285 259 247 250 251 249 240 249 248 249 241 234 233 230 225 226 223 224 224 229 221 227 234 238 245 236 227 235
349 356 357 358 359 0 342 341 329 330 331 321 323 313 306 295 291 274 263 256 250 245 246 243 243 244 238 235 235 234 232 229 229 230 230 224 231 235 237 243 248 235 233
2 347 349 346 353 351 349 341 334 326 314 308 301 298 296 286 275 266 251 256 254 257 250 244 244 241 240 241 238 237 236 232 234 231 233 216 228 233 238 245 245 243 239
331 336 330 331 330 335 329 323 316 313 311 304 300 294 291 282 279 272 263 241 242 246 252 251 246 238 237 236 238 237 240 238 235 233 233 235 227 235 241 244 246 241 243
327 325 333 328 334 331 320 313 309 304 306 298 295 296 291 284 274 276 272 266 249 236 243 240 245 247 239 231 237 242 239 240 237 234 232 236 236 230 235 244 245 245 245
326 335 325 324 323 322 319 315 308 302 295 291 287 285 284 280 274 267 261 260 260 246 234 226 226 229 230 238 231 234 238 238 240 239 234 234 234 237 227 236 242 244 245
307 319 320 323 320 319 314 309 306 301 295 290 285 280 278 274 265 255 255 257 259 252 245 230 223 226 236 237 235 239 239 232 238 241 241 239 235 232 234 229 231 244 250
287 310 311 315 317 322 311 304 298 296 290 285 284 280 279 269 268 263 252 250 249 251 254 252 232 223 230 238 233 232 229 226 234 234 241 240 232 227 230 233 235 270 274
311 333 337 327 330 334 333 328 326 319 313 298 290 283 278 275 268 261 256 249 238 244 249 254 254 246 235 229 226 236 243 230 226 229 223 224 232 225 228 224 219 211 240
320 330 334 331 329 326 330 315 298 312 303 295 293 291 284 279 274 270 260 252 244 241 244 249 252 242 247 220 213 225 259 228 235 235 231 225 225 210 223 218 208 226 234
325 338 337 334 329 323 328 324 318 304 295 307 310 308 305 302 291 282 273 264 258 249 248 244 237 236 234 213 211 230 224 234 308 211 239 238 231 217 221 224 216 232 252
316 331 341 338 330 327 328 321 317 314 318 316 307 303 303 307 301 291 282 268 259 254 248 245 248 243 229 229 231 215 230 169 238 283 210 241 237 232 229 225 241 241 242
293 322 336 326 336 329 322 318 316 312 313 316 315 315 316 318 310 297 291 285 271 268 259 251 244 249 252 245 216 190 220 224 225 218 267 220 225 224 208 188 205 242 263
266 311 344 351 332 328 325 320 320 317 317 318 322 323 328 327 326 328 315 291 275 268 279 279 266 252 247 245 246 220 194 189 204 210 234 245 198 200 179 249 296 298 317